Regional Weather Roundup
Issued by NWS

Home | Current Version | Previous Version | Graphics & Text | Print | Product List | Glossary On
Versions: 1 2 3 4 5 6 7 8 9 10 11 12 13 14 15 16 17 18 19 20 21 22 23 24 25 26 27 28 29 30 31 32 33 34 35 36 37 38 39 40 41 42 43 44 45 46 47 48 49 50
000
ASUS45 KPSR 200000
RWRAZ

PRELIMINARY ARIZONA REGIONAL HOURLY WEATHER ROUNDUP
NATIONAL WEATHER SERVICE PHOENIX AZ
500 PM MST FRI SEP 19 2014

NOTE: FAIR INDICATES FEW OR NO CLOUDS BELOW 12,000 FEET WITH NO
SIGNIFICANT WEATHER AND/OR OBSTRUCTIONS TO VISIBILITY.

AZZ001>003-036-200100-
NORTHWEST ARIZONA

CITY           SKY/WX    TMP DP  RH WIND       PRES   REMARKS
KINGMAN        SUNNY     88  42  20 SW13      29.93S
6HR MIN TEMP:  86; 6HR MAX TEMP:  90;

$$

AZZ004>008-015-016-018-200100-
NORTH CENTRAL ARIZONA

CITY           SKY/WX    TMP DP  RH WIND       PRES   REMARKS
GRAND CANYON   PTSUNNY   74  52  46 CALM      30.16R
6HR MIN TEMP:  63; 6HR MAX TEMP:  78; 6HR PCP:  0.29;

PRESCOTT       PTSUNNY   83  50  31 W12       30.03S
6HR MIN TEMP:  78; 6HR MAX TEMP:  84;

FLAGSTAFF      MOSUNNY   71  54  54 W5        30.19R
6HR MIN TEMP:  58; 6HR MAX TEMP:  72; 6HR PCP:  0.28;

PAYSON         MOSUNNY   81  59  47 W8        30.05S
PAGE           MOSUNNY   90  46  21 CALM      29.94S
6HR MIN TEMP:  86; 6HR MAX TEMP:  93;

$$

AZZ009>014-017-200100-
NORTHEAST ARIZONA

CITY           SKY/WX    TMP DP  RH WIND       PRES   REMARKS
WINSLOW        NOT AVBL
SAINT JOHNS    SUNNY     82  47  29 VRB3      30.02S
6HR MIN TEMP:  75; 6HR MAX TEMP:  84;

WINDOW ROCK    PTSUNNY   77  45  32 SW5       30.13S
6HR MIN TEMP:  69; 6HR MAX TEMP:  81; 6HR PCP: TRACE;

SHOW LOW       MOSUNNY   75  45  33 NE6       30.11F
$$

AZZ023-200100-
GREATER PHOENIX AREA

CITY           SKY/WX    TMP DP  RH WIND       PRES   REMARKS
PHOENIX        MOSUNNY   97  60  29 W13       29.73F
6HR MIN TEMP:  90; 6HR MAX TEMP:  98;

GLENDALE       MOSUNNY   97  59  28 S9        29.75F
LUKE AFB       SUNNY     98  57  25 SW8       29.73F
6HR MIN TEMP:  88; 6HR MAX TEMP:  98;

DEER VALLEY    SUNNY     95  62  33 W9        29.76S
6HR MIN TEMP:  86; 6HR MAX TEMP:  95;

SCOTTSDALE     SUNNY     95  63  34 W9        29.78S
6HR MIN TEMP:  87; 6HR MAX TEMP:  96;

MESA-FALCON    MOSUNNY   95  61  31 W8        29.76F
CHANDLER       MOSUNNY   95  64  36 SW8       29.76S
$$

AZZ027-028-200100-
SOUTHWEST MARICOPA COUNTY AND PINAL COUNTY

CITY           SKY/WX    TMP DP  RH WIND       PRES   REMARKS
CASA GRANDE    SUNNY     93  59  31 W7        29.78S
6HR MIN TEMP:  88; 6HR MAX TEMP:  95;

GILA BEND      PTCLDY    97  57  26 N7        29.75S
$$

AZZ503-504-507>509-200100-
SOUTHEAST ARIZONA

CITY           SKY/WX    TMP DP  RH WIND       PRES   REMARKS
TUCSON         PTSUNNY   86  67  52 W10       29.88R
6HR MIN TEMP:  80; 6HR MAX TEMP:  91;

DAVIS-MONTHAN  MOSUNNY   86  66  49 NW8       29.86R
6HR MIN TEMP:  79; 6HR MAX TEMP:  89;

RYAN FIELD       N/A     82  68  61 W9        29.87S
NOGALES        MOSUNNY   79  63  57 W6        29.96R
6HR MIN TEMP:  71; 6HR MAX TEMP:  83; 6HR PCP:  0.02;

SIERRA VISTA   PTSUNNY   75  63  64 W8        30.01S
SAFFORD        MOSUNNY   88  61  40 N3        29.85F
6HR MIN TEMP:  78; 6HR MAX TEMP:  88;

$$

AZZ020-021-025-026-031-200100-
SOUTHWEST ARIZONA

CITY           SKY/WX    TMP DP  RH WIND       PRES   REMARKS
YUMA           MOSUNNY   99  49  18 SW5       29.70S
6HR MIN TEMP:  92; 6HR MAX TEMP: 100;

$$

CAZ031-033-041-043-047-048-061-200100-
SOUTHERN CALIFORNIA

CITY           SKY/WX    TMP DP  RH WIND       PRES   REMARKS
DOWNTOWN L.A.  SUNNY     75  60  59 VRB5      29.83S
6HR MIN TEMP:  75; 6HR MAX TEMP:  82;

L.A. AIRPORT   MOSUNNY   73  61  65 W16       29.84F
6HR MIN TEMP:  73; 6HR MAX TEMP:  77;

SAN DIEGO      MOSUNNY   75  61  61 NW13      29.86R
6HR MIN TEMP:  75; 6HR MAX TEMP:  78;

BURBANK        SUNNY     77  58  51 S10       29.83S
6HR MIN TEMP:  73; 6HR MAX TEMP:  81;

ONTARIO        MOSUNNY   84  58  40 SW13      29.82S
6HR MIN TEMP:  74; 6HR MAX TEMP:  86;

RIVERSIDE      SUNNY     83  59  44 W13       29.82S
6HR MIN TEMP:  75; 6HR MAX TEMP:  85;

PALM SPRINGS   SUNNY     97  49  19 NW5       29.73F
6HR MIN TEMP:  89; 6HR MAX TEMP:  99;

EL CENTRO NAS  MOSUNNY   99  54  22 E7        29.68F
6HR MIN TEMP:  92; 6HR MAX TEMP:  99;

IMPERIAL       SUNNY     98  54  22 E7        29.67F
6HR MIN TEMP:  90; 6HR MAX TEMP:  99;

BLYTHE         SUNNY     99  50  19 S12       29.70F
6HR MIN TEMP:  89; 6HR MAX TEMP:  99;

$$

NVZ020-UTZ003-200100-
SOUTHERN NEVADA-UTAH

CITY           SKY/WX    TMP DP  RH WIND       PRES   REMARKS
LAS VEGAS      NOT AVBL
SALT LAKE CITY MOSUNNY   81  49  32 NW10      30.01S
6HR MIN TEMP:  76; 6HR MAX TEMP:  82;

$$

NMZ009-TXZ055-200100-
NEW MEXICO-WEST TEXAS

CITY           SKY/WX    TMP DP  RH WIND       PRES   REMARKS
ALBUQUERQUE    MOSUNNY   81  53  37 SE7       30.02S
6HR MIN TEMP:  76; 6HR MAX TEMP:  82;

EL PASO        MOSUNNY   82  60  47 NW5       29.93S
6HR MIN TEMP:  75; 6HR MAX TEMP:  83;

$$


........................KEY........................
SKY/WX - SKY CONDITION/WEATHER
TMP    - TEMPERATURE IN FAHRENHEIT
DP     - DEW POINT IN FAHRENHEIT
RH     - RELATIVE HUMIDITY IN PERCENT
WIND   - DIRECTION AND SPEED IN MILES PER HOUR (MPH)
VRB    - VARIABLE WIND DIRECTION
PRES   - MEAN SEA LEVEL PRESSURE IN INCHES OF MERCURY
         F - FALLING PRESSURE   R - RISING PRESSURE
         S - STEADY PRESSURE
VSB    - VISIBILITY IN MILES
HX     - HEAT INDEX IN FAHRENHEIT
WCI    - WIND CHILL INDEX IN FAHRENHEIT
TC     - TEMPERATURE IN CELSIUS WHICH IS ALSO KNOWN AS
         TEMPERATURE IN CENTIGRADE
AFB    - AIR FORCE BASE
         LUKE AFB IS LUKE AIR FORCE BASE
         DAVIS-MONTHAN IS DAVIS-MONTHAN AIR FORCE BASE
NAS    - NAVAL AIR STATION
         EL CENTRO NAS IS EL CENTRO NAVAL AIR STATION
N/A    - NOT AVAILABLE



USA.gov is the U.S. government's official web portal to all federal, state and local government web resources and services.